Regional Weather Roundup
Issued by NWS

Home | Current Version | Previous Version | Graphics & Text | Print | Product List | Glossary On
Versions: 1 2 3 4 5 6 7 8 9 10 11 12 13 14 15 16 17 18 19 20 21 22 23 24 25 26 27 28 29 30 31 32 33 34 35 36 37 38 39 40 41 42 43 44 45 46 47 48 49 50
000
ASUS43 KLSX 290210
RWRMO

WEATHER SUMMARY FOR MISSOURI
NATIONAL WEATHER SERVICE SPRINGFIELD MO
900 PM CDT TUE MAR 28 2017

NOTE: "FAIR" INDICATES FEW OR NO CLOUDS BELOW 12,000 FEET WITH NO
       SIGNIFICANT WEATHER AND/OR OBSTRUCTIONS TO VISIBILITY.
       CURRENT SKY AND/OR WEATHER CONDITIONS ARE NOT AVAILABLE FOR
       CHILLICOTHE AND FARMINGTON.

MOZ001>031-035>038-043-044-053-054-290300-
...NORTHERN AND WESTERN MISSOURI...

CITY           SKY/WX    TMP DP  RH WIND       PRES   REMARKS
KANSAS CTY INT CLOUDY    53  49  86 NE15      30.00F
KANSAS C DTWN  CLOUDY    54  50  86 E14       29.99F
LEE`S SUMMIT   CLOUDY    53  50  89 E14G21    29.99F
ST JOSEPH      CLOUDY    53  49  86 NE12      30.03F
CHILLICOTHE      N/A     53  49  86 NE7       30.08S
KIRKSVILLE     CLOUDY    51  47  86 E8        30.11S

$$
MOZ066>068-077>081-088>096-101>105-290300-
...SOUTHWEST MISSOURI...

CITY           SKY/WX    TMP DP  RH WIND       PRES   REMARKS
SPRINGFIELD    CLEAR     60  50  69 E13       29.94S
JOPLIN         PTCLDY    60  53  77 E10       29.89R
BRANSON        MOCLDY    63  52  67 E13       29.94S

$$
MOZ032>034-039>042-045>050-055>058-069>072-290300-
...CENTRAL MISSOURI...

CITY           SKY/WX    TMP DP  RH WIND       PRES   REMARKS
COLUMBIA       CLOUDY    55  50  83 E10       30.06S
JEFFERSON CITY CLOUDY    58  49  72 E8        30.06R
ROLLA          CLOUDY    53  49  86 E10       30.05R
SEDALIA        CLOUDY    56  51  84 E10       30.04S
WHITEMAN AFB   CLOUDY    55  55 100 E10       30.00F
WARRENSBURG    CLOUDY    54  48  82 NE13      30.01F
OSAGE BEACH    CLOUDY    55  50  83 E10       30.05R

$$
MOZ051-052-059>065-290300-
...EAST CENTRAL MISSOURI...

CITY           SKY/WX    TMP DP  RH WIND       PRES   REMARKS
ST LOUIS INTL  CLOUDY    57  47  69 NE9       30.10R
SPIRIT OF STL  CLOUDY    56  49  77 NE9       30.09R
ST CHARLES     CLOUDY    55  49  80 NE9       30.10R

$$
MOZ072>076-082>087-097>100-106>115-290300-
...SOUTH CENTRAL AND SOUTHEAST MISSOURI...

CITY           SKY/WX    TMP DP  RH WIND       PRES   REMARKS
CAPE GIRARDEAU CLOUDY    57  49  74 NE8       30.06R
FARMINGTON     CLOUDY    54  49  83 E9        30.09R
POPLAR BLUFF   MOCLDY    58  52  80 NE7       30.04R
WEST PLAINS    MOCLDY    58  49  72 E8        30.02R

$$




USA.gov is the U.S. government's official web portal to all federal, state and local government web resources and services.